This demonstration page uses our WeatherBlox Daily Observations layout. Learn more.

Left ArrowRight Arrow

Hourly Observations for November 9, 2018

Temp ( °F °C ) Dew Point ( °F °C ) Humidity (%) Winds ( mph kmh ) Pressure ( in mb ) Visibility ( mi km ) Precip ( " mm )
12:53 am 00:53 Cloudy 42 5.6 33 0.6 71 71 N 8 13 30.17 1022 10 16 0.00 0.00
1:53 am 01:53 Cloudy with Rain 40 4.4 34 1.1 79 79 NNE 6 9 30.14 1021 8 13 0.02 0.51
2:53 am 02:53 Cloudy with Light Rain 39 3.9 35 1.7 86 86 N 7 11 30.14 1021 5 8 0.05 1.27
3:53 am 03:53 Cloudy with Rain 37 2.8 34 1.1 89 89 NE 9 15 30.11 1020 5 8 0.07 1.78
4:46 am 04:46 Cloudy with Rain 37 2.8 34 1.1 89 89 ENE 8 13 30.09 1019 4 6 0.03 0.76
4:53 am 04:53 Cloudy with Light Rain 37 2.8 34 1.1 89 89 ENE 8 13 30.08 1019 5 8 0.03 0.76
5:53 am 05:53 Cloudy 37 2.8 34 1.1 89 89 NE 5 7 30.07 1018 8 13 0.00 0.03
6:36 am 06:36 Cloudy 37 2.8 35 1.7 93 93 N 3 6 30.09 1019 7 11 0.00 0.00
6:53 am 06:53 Cloudy with Light Rain 37 2.8 35 1.7 93 93 NNW 5 7 30.06 1018 6 10 0.00 0.03
7:01 am 07:01 Cloudy with Light Rain 37 2.8 34 1.1 89 89 N 3 6 30.06 1018 5 8 0.01 0.25
7:53 am 07:53 Cloudy with Light Rain 37 2.8 35 1.7 93 93 Calm 30.05 1018 4 6 0.03 0.76
8:53 am 08:53 Cloudy with Mist and Fog 38 3.3 36 2.2 93 93 Calm 30.04 1017 6 10 0.00 0.03
9:53 am 09:53 Cloudy with Mist and Fog 38 3.3 36 2.2 93 93 WNW 6 9 30.06 1018 6 10 0.00 0.00
10:53 am 10:53 Cloudy 40 4.4 38 3.3 93 93 SW 5 7 30.05 1018 8 13 0.00 0.00
11:53 am 11:53 Cloudy 41 5 39 3.9 93 93 W 6 9 30.05 1018 9 14 0.00 0.00
12:26 pm 12:26 Cloudy 42 5.6 38 3.3 85 85 W 10 17 30.06 1018 10 16 0.00 0.00
12:53 pm 12:53 Cloudy 44 6.7 40 4.4 85 85 WSW 7 11 30.04 1017 10 16 0.00 0.00
1:03 pm 13:03 Cloudy 44 6.7 40 4.4 85 85 W 8 13 30.06 1018 10 16 0.00 0.00
1:53 pm 13:53 Cloudy 45 7.2 38 3.3 77 77 W 12 19 30.04 1017 10 16 0.00 0.00
2:53 pm 14:53 Cloudy 45 7.2 36 2.2 71 71 W 13 20 30.04 1017 10 16 0.00 0.00
3:53 pm 15:53 Cloudy 43 6.1 35 1.7 74 74 W 13 20 30.06 1018 10 16 0.00 0.00
4:53 pm 16:53 Cloudy 41 5 34 1.1 76 76 W 17 28 30.09 1019 10 16 0.00 0.00
5:53 pm 17:53 Cloudy 39 3.9 33 0.6 79 79 WNW 10 17 30.11 1020 10 16 0.00 0.00
6:53 pm 18:53 Cloudy 37 2.8 30 -1.1 76 76 W 14 22 30.15 1021 10 16 0.00 0.00
7:53 pm 19:53 Cloudy 36 2.2 28 -2.2 73 73 W 16 26 30.17 1022 10 16 0.00 0.00
8:35 pm 20:35 Cloudy 35 1.7 25 -3.9 67 67 WNW 16 26 30.21 1023 10 16 0.00 0.00
8:44 pm 20:44 Cloudy 35 1.7 25 -3.9 67 67 WNW 17 28 30.21 1023 10 16 0.00 0.00
8:53 pm 20:53 Cloudy 35 1.7 25 -3.9 67 67 WNW 17 28 30.19 1022 10 16 0.00 0.00
9:53 pm 21:53 Cloudy 34 1.1 22 -5.6 61 61 WNW 18 30 30.20 1023 10 16 0.00 0.00
10:53 pm 22:53 Partly Cloudy 33 0.6 23 -5 66 66 W 8 13 30.20 1023 10 16 0.00 0.00
11:53 pm 23:53 Cloudy 33 0.6 24 -4.4 70 70 W 9 15 30.22 1023 10 16 0.00 0.00

Powered by AerisWeather